This is the latest recevied weather packets stored in our database for station/object AI5YA-13. If no packets are shown the sender has not sent any weather packets the latest 10 day(s).
| Time | Temp. | Humidity | Pressure | Rain* | Wind** | Luminosity | Snow |
|---|---|---|---|---|---|---|---|
| 1777679257 | 12.78° C | 72% | 1019 hPa | 0 mm | - | 29 W/m² | - |
| 1777678954 | 13.33° C | 68% | 1018.9 hPa | 0 mm | - | 35 W/m² | - |
| 1777678652 | 13.33° C | 66% | 1018.4 hPa | 0 mm | - | 39 W/m² | - |
| 1777678349 | 13.33° C | 64% | 1018.8 hPa | 0 mm | - | 52 W/m² | - |
| 1777678044 | 13.33° C | 64% | 1018.6 hPa | 0 mm | - | 31 W/m² | - |
| 1777677742 | 13.33° C | 63% | 1018.4 hPa | 0 mm | - | 38 W/m² | - |
| 1777677440 | 13.33° C | 63% | 1018.4 hPa | 0 mm | - | 58 W/m² | - |
| 1777677138 | 13.33° C | 63% | 1017.8 hPa | 0 mm | - | 55 W/m² | - |
| 1777676836 | 13.33° C | 62% | 1018.1 hPa | 0 mm | - | 48 W/m² | - |
| 1777676534 | 13.33° C | 63% | 1018 hPa | 0 mm | - | 59 W/m² | - |
| 1777676231 | 12.78° C | 65% | 1018 hPa | 0 mm | - | 71 W/m² | - |
| 1777675928 | 12.78° C | 68% | 1017.7 hPa | 0 mm | - | 84 W/m² | - |
| 1777675624 | 12.78° C | 71% | 1017.5 hPa | 0 mm | - | 84 W/m² | - |
| 1777675322 | 12.78° C | 72% | 1017.6 hPa | 0 mm | - | 75 W/m² | - |
| 1777675018 | 12.78° C | 73% | 1017.7 hPa | 0 mm | - | 73 W/m² | - |
| 1777674715 | 12.78° C | 74% | 1017.4 hPa | 0 mm | - | 98 W/m² | - |
| 1777674411 | 12.78° C | 75% | 1017.5 hPa | 0 mm | - | 113 W/m² | - |
| 1777674109 | 12.78° C | 76% | 1017.3 hPa | 0 mm | - | 127 W/m² | - |
| 1777673804 | 12.78° C | 77% | 1017.3 hPa | 0 mm | - | 102 W/m² | - |
| 1777673502 | 12.78° C | 78% | 1017.1 hPa | 0 mm | - | 110 W/m² | - |
| 1777673200 | 12.78° C | 79% | 1017.1 hPa | 0 mm | - | 136 W/m² | - |
| 1777672896 | 12.78° C | 79% | 1017.3 hPa | 0 mm | - | 216 W/m² | - |
| 1777672593 | 12.78° C | 79% | 1017 hPa | 0 mm | - | 215 W/m² | - |
| 1777672288 | 12.78° C | 79% | 1016.9 hPa | 0 mm | - | 218 W/m² | - |
| 1777671983 | 13.33° C | 79% | 1016.9 hPa | 0 mm | - | 164 W/m² | - |
* Rain latest hour (hover to see other rain measurements)
** Current wind speed in m/s (hover to see current wind gust speed)